Regional Weather Roundup
Issued by NWS

Home | Current Version | Previous Version | Text Only | Print | Product List | Glossary On
Versions: 1 2 3 4 5 6 7 8 9 10 11 12 13 14 15 16 17 18 19 20 21 22 23 24 25 26 27 28 29 30 31 32 33 34 35 36 37 38 39 40 41 42 43 44 45 46 47 48 49 50
000
ASUS43 KMKX 232059
RWRWI

WISCONSIN REGIONAL WEATHER ROUNDUP
NATIONAL WEATHER SERVICE MILWAUKEE/SULLIVAN WI
400 PM CDT MON APR 23 2018

NOTE: "FAIR" INDICATES FEW OR NO CLOUDS BELOW 12,000 FEET WITH NO
SIGNIFICANT WEATHER AND/OR OBSTRUCTIONS TO VISIBILITY.

WIZ001-002-006>008-014>016-023>028-232200-
NORTHWEST WISCONSIN

CITY           SKY/WX    TMP DP  RH WIND       PRES   REMARKS
SUPERIOR ARPT  FAIR      68  37  31 SW3       30.12F
ASHLAND        FAIR      66  30  26 SW9       30.14F
HAYWARD        FAIR      65  31  28 S9        30.15F
SIREN          FAIR      67  30  25 W5        30.15F
CUMBERLAND     FAIR      59  30  33 CALM      30.17F
RICE LAKE      FAIR      63  32  31 W6        30.19F
CHETEK         FAIR      64  32  30 NE5       30.17F
LADYSMITH      FAIR      65  29  25 NW3       30.18F
EAU CLAIRE     NOT AVBL
MENOMONIE      FAIR      68  28  22 CALM      30.16F
NEW RICHMOND   FAIR      67  30  25 N8        30.16F
OSCEOLA        FAIR      68  32  25 W3        30.18F
$$

WIZ003>005-009-010-017-018-232200-
NORTH CENTRAL WISCONSIN

CITY           SKY/WX    TMP DP  RH WIND       PRES   REMARKS
MANITOWISH WTR FAIR      61  28  28 CALM      30.16F
ARBOR VITAE    FAIR      62  26  25 W6        30.16F
WOODRUFF       FAIR      62  26  25 W6        30.16F
RHINELANDER    FAIR      63  25  23 W5        30.17F
EAGLE RIVER    FAIR      58  22  24 SW7       30.16F
LAND O LAKES   FAIR      63  22  20 SW3       30.17F
PHILLIPS       FAIR      62  30  30 CALM      30.16F
TOMAHAWK       FAIR      62  23  22 CALM      30.17F
MEDFORD        FAIR      60  33  35 SE3       30.17F
MERRILL        FAIR      63  27  25 W3        30.18F
$$

WIZ029-030-035-036-043>047-232200-
CENTRAL WISCONSIN

CITY           SKY/WX    TMP DP  RH WIND       PRES   REMARKS
WAUSAU         FAIR      63  24  22 SW5       30.15F
MOSINEE        MOSUNNY   63  27  25 VRB3      30.18F
MARSHFIELD     FAIR      62  23  22 SE5       30.16F
STEVENS POINT  FAIR      60  24  25 SE5       30.18F
WAUPACA        FAIR      65  22  19 CALM      30.18S
WAUTOMA        FAIR      64  23  21 E6        30.17F
WISC RAPIDS    FAIR      65  26  23 NE10      30.17F
CAMP DOUGLAS   NOT AVBL
$$

WIZ011>013-019>022-031-037>040-048>050-232200-
NORTHEAST WISCONSIN

CITY           SKY/WX    TMP DP  RH WIND       PRES   REMARKS
ANTIGO         FAIR      60  30  32 N3        30.18F
SHAWANO        FAIR      62  26  24 NE5       30.18F
OCONTO         FAIR      62  24  23 SE5       30.18F
STURGEON BAY   NOT AVBL
GREEN BAY      FAIR      62  30  29 E9        30.18F
MANITOWOC      NOT AVBL
APPLETON       SUNNY     63  21  20 N7        30.16R
CLINTONVILLE   FAIR      61  20  20 CALM      30.18F
OSHKOSH        FAIR      59  32  36 N9        30.17F
$$

WIZ032>034-041-042-053>061-232200-
SOUTHWEST WISCONSIN

CITY           SKY/WX    TMP DP  RH WIND       PRES   REMARKS
LA CROSSE      FAIR      70  28  21 W8        30.13F
SPARTA         FAIR      67  24  19 E10       30.15F
VIROQUA        FAIR      66  30  26 NE8       30.14F
BOSCOBEL       FAIR      69  27  20 MISG      30.13F
PRAIRIE DU CHI FAIR      69  20  15 NE8       30.12F
PLATTEVILLE    FAIR      67  26  20 E12G18    30.13F
$$

WIZ056-057-062-063-064-067-068-232200-
SOUTH CENTRAL WISCONSIN

CITY           SKY/WX    TMP DP  RH WIND       PRES   REMARKS
REEDSBURG      FAIR      65  26  22 E7        30.14S
BARABOO/DELLS  FAIR      65  25  21 E10       30.14F
LONE ROCK      NOT AVBL
MINERAL POINT  FAIR      68  23  18 E14G20    30.13F
MADISON        PTSUNNY   65  24  21 E7        30.13F
MIDDLETON      FAIR      67  29  24 N12G20    30.14F
WATERTOWN      FAIR      64  23  21 E7        30.13F
MONROE         FAIR      66  21  18 NE12      30.11F
JANESVILLE     PTSUNNY   70  21  16 E12       30.11F
$$

WIZ051-052-058>065-066-070>072-232200-
SOUTHEAST WISCONSIN

CITY           SKY/WX    TMP DP  RH WIND       PRES   REMARKS
MILWAUKEE      PTSUNNY   58  25  28 NE17G24   30.15F
WAUKESHA       NOT AVBL
MILWAUKEE/TIMM SUNNY     61  12  15 NE9       30.15F
RACINE         FAIR      56  27  32 N15       30.16F
BURLINGTON     FAIR      66  25  21 E10G16    30.13F
KENOSHA        FAIR      62  22  21 NE17      30.13F
FOND DU LAC    FAIR      62  32  32 NE12      30.16F
SHEBOYGAN      FAIR      60  30  32 NE13      30.16F
WEST BEND      FAIR      63  19  19 E8        30.16F
JUNEAU         FAIR      65  27  24 E9        30.15F
$$

LSZ147-162-232200-
LAKE SUPERIOR

STATION/POSITION TIME  TEMP    WIND        PRES    WAVE
                       AIR SEA DIR/SP/G            HT/PER
                 (UTC) (F)     (DEG/KT/KT) (MB)    (FT/S)
DEVILS ISLAND    2000   55     230/ 11/ 13 1020.7F
SAXON HARBOR     2040   55      60/  6/  6 1020.0F
$$

LMZ867-665-643>646-232200-
LAKE MICHIGAN

STATION/POSITION TIME  TEMP    WIND        PRES    WAVE
                       AIR SEA DIR/SP/G            HT/PER
                 (UTC) (F)     (DEG/KT/KT) (MB)    (FT/S)
NORTHPORT PIER   2040   41                 1022.4F
KEWAUNEE LAKESHO 2006   48      30/  5/  6 1021.9
SHEBOYGAN LAKESH 2000   45      10/ 10/ 11 1022.4F
PORT WASHINGTON  2040   50      40/  8/ 11 1022.4F
MILWAUKEE LAKESH 2030   52      20/ 14/ 15   N/A
KENOSHA   LAKESH 2000   46                 1020.7
$$

TC  - TEMPERATURE IN CELSIUS
VSB - VISIBILITY IN STATUTE MILES
WCI - WIND CHILL INDEX
HX  - HEAT INDEX




USA.gov is the U.S. government's official web portal to all federal, state and local government web resources and services.